Regional Weather Roundup
Issued by NWS

Home | Current Version | Previous Version | Text Only | Print | Product List | Glossary Off
Versions: 1 2 3 4 5 6 7 8 9 10 11 12 13 14 15 16 17 18 19 20 21 22 23 24 25 26 27

000
ASUS45 KBOU 201110
RWRCO

WEATHER ROUNDUP FOR COLORADO
NATIONAL WEATHER SERVICE DENVER/BOULDER CO
500 AM MDT SUN MAY 20 2018

NOTE: "FAIR" INDICATES FEW OR NO CLOUDS BELOW 12000 FEET WITH NO
SIGNIFICANT WEATHER AND/OR OBSTRUCTIONS TO VISIBILITY.

COZ001>005-013-030-031-201200-
...NORTHWEST COLORADO...

CITY           SKY/WX    TMP DP  RH WIND       PRES   REMARKS
CRAIG          FAIR      34  34 100 CALM      30.13S
HAYDEN         FAIR      40  37  89 E9        30.15S
MEEKER         FAIR      36  33  89 CALM      30.12S
RANGELY        FAIR      49  40  69 E17       30.05F
RABBIT EARS PA FAIR      32  32 100 W5        30.26S WCI  27
STEAMBOAT SPGS CLOUDY    34  34 100 CALM      30.15S VSB 1/4
WALDEN         FAIR      30  27  86 S7        30.21S WCI  23
$$

COZ006>008-011-201200-
...WEST CENTRAL VALLEYS...

CITY           SKY/WX    TMP DP  RH WIND       PRES   REMARKS
GRAND JUNCTION FAIR      56  36  47 SE8       30.02R
MONTROSE       FAIR      45  32  60 SE5       30.08S
EAGLE          FAIR      34  32  92 CALM      30.19S
RIFLE          FAIR      42  39  89 SE3       30.09R
DELTA          FAIR      51  36  57 N8        30.07R
NUCLA          FAIR      48  28  46 E8        30.07S
$$

COZ017>023-064>068-201200-
...SOUTHWEST COLORADO...

CITY           SKY/WX    TMP DP  RH WIND       PRES   REMARKS
DURANGO        FAIR      39  27  62 VRB3      30.10R
CORTEZ         FAIR      38  26  62 NE3       30.03R
PAGOSA SPRINGS MOCLDY    38  24  58 CALM      30.17R
TELLURIDE      FAIR      41  27  56 SE7       30.22S
WOLF CREEK PAS FAIR      36  19  51 S3        30.41R
$$

COZ009-010-012-014-032>034-037-058>063-201200-
...CENTRAL COLORADO...

CITY           SKY/WX    TMP DP  RH WIND       PRES   REMARKS
ASPEN          FAIR      35  11  36 SW7       30.16S WCI  29
BUENA VISTA    CLOUDY    41  38  89 SE12      30.25R
COPPER MTN     FAIR      37  23  56 W8G18     30.33S
BERTHOUD PASS  FAIR      30  18  59 W24G31    30.32S WCI  16
COTTONWOOD PAS CLOUDY    41  37  87 CALM      30.29R
GUNNISON       FAIR      33  32  96 CALM      30.23R
GRANBY         FOG       35  35 100 E3        30.22S VSB 3/4
KREMMLING      FAIR      36  32  87 CALM      30.21S
LEADVILLE      CLOUDY    33  32  96 NE5       30.25F WCI  29
MONARCH PASS   FAIR      32  28  86 MISG      30.46R
SALIDA         MOCLDY    43  39  86 SE6       30.31R
SUNLIGHT       FAIR      36  25  64 SW5       30.31F
WILKERSON PASS SNOW      32  30  93 SW7       30.35R VSB 1/4 WCI  26
$$

COZ069>075-201200-
...SAN LUIS VALLEY/SANGRE DE CRISTO MOUNTAINS...

CITY           SKY/WX    TMP DP  RH WIND       PRES   REMARKS
ALAMOSA        FAIR      31  28  89 S3        30.22R
DEL NORTE      FAIR      37  27  67 W10       30.23R
LA VETA PASS   FAIR      34  32  93 CALM      30.40F
SAGUACHE       NOT AVBL
$$

COZ035-036-038>040-201200-
...NORTHERN COLORADO FRONT RANGE...

CITY           SKY/WX    TMP DP  RH WIND       PRES   REMARKS
DENVER INTL AP CLOUDY    40  39  97 E8        30.22R
AURORA         CLOUDY    40  40 100 E5        30.23R
FRONT RANGE AP CLOUDY    42  41  97 E6        30.23S FOG
ERIE MUNI ARPT CLOUDY    42  41  95 E3        30.28R
BOULDER MUN AP LGT RAIN  41  41 100 NE5       30.22R
CENTENNIAL     CLOUDY    42  39  89 SE7       30.21R
BROOMFIELD     CLOUDY    41  41 100 E6        30.24R FOG
FORT COLLINS   LGT RAIN  42  41  96 SE7       30.24R
LONGMONT       CLOUDY    44  43  93 E5        30.25R FOG
$$

COZ041-046-047-076>085-087-088-201200-
...PIKES PEAK/PALMER DIVIDE AND SOUTHERN FOOTHILLS...

CITY           SKY/WX    TMP DP  RH WIND       PRES   REMARKS
COLO. SPRINGS  CLOUDY    42  40  92 S7        30.23R
A. F. ACADEMY  CLOUDY    42  41  99 CALM      30.22S
SCHRIEVER AFB  NOT AVBL
CHEYENNE MTN     N/A     39  39 100 CALM      30.18R
ELLICOTT         N/A    N/A N/A N/A SE7       30.23R
FALCON         CLOUDY    40  38  89 S3        30.24S
FORT CARSON    CLOUDY    44  43  95 S8        30.22R
LIMON          CLOUDY    40  39  97 NE6       30.25R
MONUMENT HILL  CLOUDY    36  36 100 CALM      30.24F
CANON CITY     CLOUDY    48  45  87 SE3       30.22R
WALSENBURG     CLOUDY    45  43  93 SE5       30.23S
TRINIDAD       CLOUDY    45  43  93 E5        30.24R
$$

COZ042>045-048>051-090-091-201200-
...NORTHEAST COLORADO...

CITY           SKY/WX    TMP DP  RH WIND       PRES   REMARKS
GREELEY ARPT   CLOUDY    43  39  87 E6        30.25R
AKRON          CLOUDY    40  39  97 N3        30.24R
BURLINGTON     CLOUDY    43  42  97 N8        30.24R
WRAY           CLOUDY    43  41  93 N6        30.23F
YUMA           CLOUDY    39  37  93 CALM      30.25R
STERLING       CLOUDY    41  41 100 CALM      30.22R
HOLYOKE        MOCLDY    43  41  93 NW6       30.24R
FORT MORGAN    CLOUDY    40  38  93 N3        30.25R
$$

COZ086-089-092>099-201200-
...SOUTHEAST COLORADO...

CITY           SKY/WX    TMP DP  RH WIND       PRES   REMARKS
PUEBLO         CLOUDY    46  41  82 SE10      30.22R
LA JUNTA       FAIR      45  41  86 E3        30.23S
LAMAR          CLOUDY    47  40  76 NE12      30.22R
SPRINGFIELD      N/A     43  42  97 N16       30.22R
$$




USA.gov is the U.S. government's official web portal to all federal, state and local government web resources and services.